Flag for Switzerland Weather past 2 weeks in Stäfa, Zurich, Switzerland

Now
29 °F

Chilly.


Feels Like: 20 °F
Forecast: 17 / 33 °F
Wind: 12 mph from Southwest

Location: Zurich Town / Ville.

Current Time: Feb 2, 2015 at 3:28:25 AM

Latest Report: Feb 2, 2015 at 2:00 AM


Visibility: N/A

Pressure: 29.57 "Hg

Humidity: 96%

Dew point: 28 °F

Location of StäfaLocation

Historic Weather in Stäfa — Graph

°F

Stäfa temperature yesterday

Maximum temperature yesterday: 33 °F (at 12:00 PM)
Minimum temperature yesterday: 30 °F (at 6:00 AM)
Average temperature yesterday: 31 °F

Past Weeks' High & Low Weather Summary

 TemperatureHumidityPressure
High37 °F (Jan 31, 3:00 PM)100% (Jan 20, 4:00 AM)30.47 "Hg (Jan 20, 4:00 AM)
Low26 °F (Jan 26, 7:00 AM)57% (Jan 31, 3:00 PM)28.88 "Hg (Jan 30, 1:00 AM)
Average32 °F88%29.87 "Hg
* Reported Jan 18 2:00 AM — Feb 2 2:00 AM, Stäfa, Weather by CustomWeather, © 2014

Note: Actual official high and low records may vary slightly from our data, if they occured in-between our weather recording intervals... More about our weather records

Advertising

Stäfa weather history for previous 24 hours

 ConditionsComfort  
Time TempWeatherWind HumidityBarometerVisibility
2:00 AM
Feb 2
29 °FChilly.12 mph96%29.57 "HgN/A
1:00 AM30 °FChilly.16 mph90%29.55 "HgN/A
12:00 AM32 °FChilly.18 mph72%29.54 "HgN/A
11:00 PM
Feb 1
32 °FChilly.12 mph73%29.54 "HgN/A
10:00 PM31 °FChilly.14 mph75%29.55 "HgN/A
9:00 PM31 °FChilly.8 mph75%29.55 "HgN/A
8:00 PM31 °FChilly.10 mph84%29.55 "HgN/A
7:00 PM31 °FChilly.9 mph88%29.53 "HgN/A
6:00 PM31 °FChilly.10 mph91%29.50 "HgN/A
5:00 PM31 °FChilly.12 mph92%29.47 "HgN/A
4:00 PM32 °FChilly.10 mph91%29.44 "HgN/A
3:00 PM31 °FChilly.8 mph93%29.41 "HgN/A
2:00 PM30 °FChilly.5 mph96%29.41 "HgN/A
1:00 PM32 °FChilly.12 mph74%29.38 "HgN/A
12:00 PM33 °FChilly.10 mph74%29.38 "HgN/A
11:00 AM32 °FChilly.9 mph80%29.38 "HgN/A
10:00 AM32 °FChilly.5 mph87%29.35 "HgN/A
9:00 AM31 °FChilly.7 mph90%29.32 "HgN/A
8:00 AM30 °FChilly.8 mph95%29.32 "HgN/A
7:00 AM30 °FIce fog.6 mph96%29.29 "HgN/A
6:00 AM30 °FChilly.12 mph94%29.26 "HgN/A
5:00 AM30 °FChilly.9 mph93%29.26 "HgN/A
4:00 AM32 °FChilly.6 mph71%29.23 "HgN/A
3:00 AM32 °FChilly.12 mph72%29.23 "HgN/A
Weather by CustomWeather, © 2014

See weather overviewHow to use our weather pages